Das Wetter in  D-61279 Heinzenberg / Taunus





Wetter Minimum- & Maximum-Werte im Juni 2013

Standort: Heinzenberg / Taunus - Höhe 297 m         8 24' 1" Ost 50 21' 51" Nord
(   3-stündige Aktualisierung    letzte Aktualisierung um 19:04 am 30.06.2013  )


Messgrösse

Minimum

Maximum

Durchschnitt

Temperatur West /
Luftfeuchte West
Anklicken für Monats-Diagramm

4,3 C

06:24
04.06.2013

32 %

18:20
06.06.2013

35,3 C

14:05
19.06.2013

91 %

08:29
11.06.2013

Temp

16,0 C

Feuchte

71 %

Temperatur Ost /
Luftfeuchte Ost
Anklicken für Monats-Diagramm

4,5 C

06:19
04.06.2013

--

--
--

35,1 C

14:49
19.06.2013

--

--
--

15,9 C

--

Luftdruck Anklicken für Monats-Diagramm

1007,8 hPa

18:22
09.06.2013

1029,4 hPa

08:59
26.06.2013

1017,6 hPa

Taupunkt

0,2 C

05:58
03.06.2013

25,5 C

18:34
19.06.2013

10,5 C

Windchill
( gefühlte Temperatur )

-1,3 C

08:42
02.06.2013

35,3 C

14:05
19.06.2013

14,3 C

Windgeschwindigkeit /
Windrichtung
Anklicken für Monats-Diagramm

---

71,5 km/h / W

23:15
20.06.2013

8,8 km/h
W-SW

Helligkeit /
Sonnenschein
Anklicken für Monats-Diagramm
Anklicken für Monats-Diagramm

Sonnenschein:

160:38 Stunden

Max: 13:50 Std am
06.06.2013

114 klux

14:54
24.06.2013

30 klux

Solarstrahlung Anklicken für Monats-Diagramm

---

780 W/m

14:54
24.06.2013

223 W/m

Regenmenge
    Juni 2013
Anklicken für Monats-Diagramm

Insgesamt 59,7 l/m

in 34:35 Stunden
an 14 Tagen

23,7 l/m

10:57
09.06.2013

Gesamtmenge

59,7 l/m

Regen-Tage
    Juni 2013
Anklicken für Monats-Diagramm

>   0 mm/Tag

>   2 mm/Tag

>   5 mm/Tag

> 10 mm/Tag

> 20 mm/Tag

14 Tage     
6 Tage     
4 Tage     
2 Tage     
  1 Tag     

Eisige Tage Juni 2013 / 2012

Tmin ≤ -10C     

0 Tage

/

0 Tage

Eistage Juni 2013 / 2012

Tmax <     0C     

0 Tage

/

0 Tage

Frosttage Juni 2013 / 2012

Tmin ≤     0C     

0 Tage

/

0 Tage

Kalte Tage Juni 2013 / 2012

Tmax <   10C     

0 Tage

/

0 Tage

Warme Tage Juni 2013 / 2012

Tmax ≥   20C     

17 Tage

/

16 Tage

Sommertage Juni 2013 / 2012

Tmax ≥   25C     

8 Tage

/

4 Tage

Heisse Tage Juni 2013 / 2012

Tmax ≥   30C     

3 Tage

/

0 Tage


Monatsdiagramm Juni 2013

Die Kurven zeigen den Durchschnittswert des jeweiligen Tages an


Wetter-Monatsübersicht Juni 2013
Datum
  Temperatur
   Luftdruck
   Wind
  Regen
   Luftfeuchte
   Helligkeit

Sonnen-
schein


Temp.

Min.
Temp.

Max.
Temp.


Luftdruck

Min.
Luftdruck

Max.
Luftdruck

-Geschw.
Haupt-Richtg.

Max.
Wind

Menge /
Dauer


Feuchte

Min.
Feuchte

Max.
Feuchte


Helligkeit

Max.
Helligkeit

1.
Juni
12,8 C10,6 C
23:52
15,6 C
12:36
1012,8 hPa1008,0 hPa
00:01
1017,8 hPa
23:52
19,7 km/h
NW
38,5 km/h
13:21  
---
81 %71 %
13:11
86 %
06:26
19,8 klux98,2 klux
13:41
1:50 Std 
2.
Juni
12,0 C6,8 C
06:27
17,7 C
18:32
1021,3 hPa1017,8 hPa
00:02
1025,1 hPa
23:53
16,2 km/h
NW
36,5 km/h
15:07  
---
64 %45 %
15:57
83 %
03:07
38,5 klux88,6 klux
15:12
6:40 Std 
3.
Juni
12,5 C4,6 C
06:28
21,5 C
17:43
1025,1 hPa1021,7 hPa
18:33
1027,4 hPa
08:48
8,0 km/h
NW
24,6 km/h
12:43  
---
57 %35 %
17:58
76 %
07:08
44,0 klux92,0 klux
13:23
10:40 Std 
4.
Juni
13,6 C4,3 C
06:24
23,9 C
17:44
1021,8 hPa1017,4 hPa
18:54
1025,6 hPa
02:59
6,0 km/h
NO
23,6 km/h
18:24  
---
63 %40 %
17:29
83 %
07:59
44,2 klux92,4 klux
12:44
11:35 Std 
5.
Juni
16,2 C7,2 C
05:54
24,5 C
16:44
1018,4 hPa1016,2 hPa
16:44
1020,3 hPa
05:54
4,4 km/h
SO
24,1 km/h
13:24  
---
65 %45 %
13:29
84 %
07:19
41,2 klux101,0 klux
13:34
9:56 Std 
6.
Juni
17,6 C8,5 C
05:50
27,3 C
18:20
1019,6 hPa1017,9 hPa
18:20
1021,2 hPa
06:00
2,8 km/h
SO
16,8 km/h
12:10  
---
57 %32 %
18:20
79 %
06:35
44 klux89 klux
14:25
13:50 Std 
7.
Juni
18,5 C9,2 C
05:41
28,1 C
18:06
1019,3 hPa1016,8 hPa
18:06
1021,1 hPa
05:41
3,3 km/h
SO
16,5 km/h
16:46  
---
62 %36 %
15:46
83 %
08:51
39,9 klux96,2 klux
12:41
10:05 Std 
8.
Juni
19,2 C11,3 C
05:56
28,1 C
16:11
1015,4 hPa1011,0 hPa
18:46
1019,6 hPa
02:26
3,9 km/h
SO
26,3 km/h
15:26  
---
66 %43 %
16:01
84 %
08:11
37,3 klux92,5 klux
14:51
7:32 Std 
9.
Juni
15,4 C12,5 C
06:02
17,8 C
09:22
1010,0 hPa1007,8 hPa
18:22
1012,2 hPa
02:47
3,9 km/h
NW
15,0 km/h
19:32  
23,7 l/m
3:06 Stunden
82 %71 %
09:52
89 %
13:37
16,5 klux65,8 klux
13:37
1:05 Std 
10.
Juni
13,8 C12,4 C
07:33
16,7 C
13:03
1011,3 hPa1009,1 hPa
00:03
1015,5 hPa
23:59
3,3 km/h
NW
21,5 km/h
15:28  
0,6 l/m
2:36 Stunden
85 %76 %
13:03
89 %
01:43
11,6 klux75,8 klux
12:48
10 Min 
11.
Juni
15,7 C10,9 C
06:19
22,5 C
17:59
1016,7 hPa1015,5 hPa
00:04
1018,4 hPa
23:55
6,3 km/h
W
23,9 km/h
13:34  
0,8 l/m
1:30 Stunden
74 %44 %
16:54
91 %
08:29
35,7 klux90,5 klux
13:49
6:35 Std 
12.
Juni
16,5 C9,6 C
05:50
22,7 C
15:00
1018,8 hPa1017,5 hPa
16:05
1020,0 hPa
05:50
6,9 km/h
W-SW
29,0 km/h
12:05  
---
73 %60 %
12:30
85 %
06:50
26,6 klux101,0 klux
14:25
2:40 Std 
13.
Juni
19,3 C11,3 C
23:47
27,3 C
16:51
1015,6 hPa1010,8 hPa
17:21
1018,8 hPa
23:47
14,2 km/h
W-SW
51,6 km/h
20:01  
6,8 l/m
3:27 Stunden
72 %48 %
17:11
88 %
22:22
33 klux104 klux
12:01
5:00 Std 
14.
Juni
13,8 C9,6 C
03:57
18,6 C
13:57
1020,0 hPa1017,0 hPa
19:49
1022,8 hPa
09:37
7,2 km/h
W-SW
26,4 km/h
01:17  
0,2 l/m
30 Minuten
74 %52 %
13:52
88 %
00:02
26 klux107 klux
12:52
2:30 Std 
15.
Juni
14,7 C8,3 C
03:29
19,9 C
14:39
1014,6 hPa1012,6 hPa
14:39
1018,0 hPa
01:39
13,8 km/h
W-SW
34,6 km/h
14:34  
---
71 %56 %
17:05
86 %
08:15
23 klux82 klux
13:50
1:20 Std 
16.
Juni
16,8 C9,4 C
06:09
25,1 C
18:20
1016,2 hPa1014,0 hPa
18:20
1018,0 hPa
06:09
7,1 km/h
W-SW
25,6 km/h
14:09  
---
63 %41 %
18:04
81 %
06:39
40,2 klux98,9 klux
15:19
7:14 Std 
17.
Juni
21,3 C10,5 C
05:14
32,9 C
17:50
1013,5 hPa1009,1 hPa
18:44
1016,8 hPa
06:40
3,9 km/h
SO
18,6 km/h
13:24  
---
65 %44 %
17:29
82 %
05:19
42,9 klux93,0 klux
13:24
12:41 Std 
18.
Juni
25,0 C17,4 C
05:50
34,2 C
17:10
1014,1 hPa1012,5 hPa
00:00
1015,4 hPa
23:55
2,8 km/h
SO
14,4 km/h
18:24  
---
67 %39 %
18:20
86 %
07:45
42,4 klux78,6 klux
13:59
12:13 Std 
19.
Juni
26,8 C17,9 C
06:04
35,3 C
14:05
1011,1 hPa1007,9 hPa
18:34
1015,6 hPa
01:14
5,5 km/h
O-SO
28,5 km/h
10:30  
---
65 %39 %
14:09
84 %
06:45
39,9 klux81,0 klux
15:35
10:09 Std 
20.
Juni
21,4 C15,4 C
23:50
24,8 C
00:00
1011,3 hPa1009,4 hPa
21:00
1013,6 hPa
13:14
9,5 km/h
W
71,5 km/h
23:15  
2,7 l/m
1:24 Stunden
80 %73 %
00:00
90 %
23:50
17,7 klux94,6 klux
13:24
35 Min 
21.
Juni
17,1 C13,8 C
06:49
21,1 C
14:00
1013,8 hPa1011,1 hPa
01:19
1017,3 hPa
23:55
19,0 km/h
W-SW
43,1 km/h
12:29  
2,3 l/m
1:25 Stunden
75 %60 %
18:14
89 %
00:00
29,9 klux109,0 klux
12:29
4:37 Std 
22.
Juni
16,8 C12,0 C
03:39
21,8 C
15:50
1015,5 hPa1012,3 hPa
18:25
1017,7 hPa
03:39
12,7 km/h
W-SW
33,1 km/h
17:54  
---
35 Minuten
72 %60 %
15:50
84 %
06:00
28 klux98 klux
15:35
4:35 Std 
23.
Juni
15,6 C12,8 C
23:35
18,9 C
16:30
1013,8 hPa1012,0 hPa
09:39
1016,5 hPa
23:35
19,5 km/h
W-SW
42,1 km/h
11:45  
0,2 l/m
40 Minuten
69 %57 %
15:54
80 %
04:40
24,6 klux110,0 klux
13:19
2:39 Std 
24.
Juni
13,5 C11,9 C
23:20
16,8 C
15:00
1019,6 hPa1016,4 hPa
01:20
1023,9 hPa
23:35
12,7 km/h
W
30,1 km/h
15:00  
0,2 l/m
1:17 Stunden
75 %67 %
15:10
85 %
09:44
20 klux114 klux
14:54
51 Min 
25.
Juni
12,4 C10,9 C
06:14
15,0 C
15:50
1025,1 hPa1023,9 hPa
00:20
1028,1 hPa
23:50
9,0 km/h
NW
28,5 km/h
17:29  
2,0 l/m
3:30 Stunden
78 %63 %
17:40
88 %
06:14
19 klux86 klux
15:40
35 Min 
26.
Juni
11,1 C7,0 C
05:35
14,5 C
14:45
1027,9 hPa1026,7 hPa
19:24
1029,4 hPa
08:59
8,2 km/h
NW
22,7 km/h
15:15  
---
71 %56 %
14:55
83 %
06:54
21,6 klux103,0 klux
14:20
19 Min 
27.
Juni
11,7 C9,7 C
04:09
16,8 C
16:35
1023,8 hPa1021,6 hPa
20:00
1027,1 hPa
00:05
3,6 km/h
W-SW
15,2 km/h
17:34  
12,9 l/m
8:32 Stunden
80 %63 %
16:25
88 %
09:30
21 klux110 klux
13:19
2:33 Std 
28.
Juni
12,2 C8,8 C
05:29
15,6 C
16:09
1020,8 hPa1019,4 hPa
17:50
1023,1 hPa
00:30
8,0 km/h
W-SW
28,1 km/h
13:25  
---
1:18 Stunden
79 %69 %
16:05
88 %
06:20
19 klux62 klux
11:25
--- 
29.
Juni
14,6 C11,2 C
23:55
19,2 C
17:35
1018,1 hPa1014,4 hPa
09:04
1024,0 hPa
23:55
16,2 km/h
NW
32,7 km/h
18:15  
7,4 l/m
4:45 Stunden
76 %58 %
18:05
91 %
09:00
27,7 klux93,7 klux
13:25
3:55 Std 
30.
Juni
13,1 C6,1 C
05:25
20,1 C
18:00
1023,6 hPa1020,8 hPa
18:00
1025,6 hPa
05:25
7,0 km/h
W
26,6 km/h
15:45  
---
70 %54 %
18:04
85 %
06:20
35,1 klux102,0 klux
12:40
6:14 Std 



Juni
2013

Temperatur

  

Luftdruck

  

Wind

  

Regen

  

Luftfeuchte

  

Helligkeit

Sonnen-
schein

Min

Max

Min

Max

Max

Max

Min

Max

Max

Max

16,0 C

4,3 C

06:24 Uhr
04.06.2013

35,3 C

14:05 Uhr
19.06.2013

1017,6 hPa

1007,8 hPa

18:22 Uhr
09.06.2013

1029,4 hPa

08:59 Uhr
26.06.2013

8,8 km/h

W-SW

71,5 km/h

23:15 Uhr
20.06.2013

23,7 l/m

3:06 Stunden
09.06.2013

71 %

32 %

18:20 Uhr
06.06.2013

91 %

08:29 Uhr
11.06.2013

30 klux

114,0 klux

14:54 Uhr
24.06.2013

13:50 Std

am
06.06.2013

Gesamt

Gesamt

59,7 l/m

14 Tage
34:35 h

160:38 Std


Wetter-Diagramme Juni 2013     Heinzenberg / Taunus   
TemperaturLuftfeuchte
SolarstrahlungLuftdruck
HelligkeitSonnenschein
RegenmengeRegendauer
Wind-GeschwindigkeitWind-Richtung